FW2710 Weather Reports


Display with metric or nautical units.
time (UTC)temp
F
wind
direction
speed
MPH
gust
MPH
rain 1hr
in
rain 24hr
in
rain mn
in
humidity
%
barometer
mb
20260506002526 50 0 0.0 0.0 0.00 0.61 0.03 75 1009.6
20260506002026 50 0 0.0 0.0 0.00 0.61 0.03 75 1009.5
20260506001553 50 0 0.0 0.0 0.00 0.61 0.03 74 1009.6
20260506001026 50 0 0.0 0.0 0.00 0.61 0.03 74 1009.5
20260506000526 50 0 0.0 0.0 0.00 0.61 0.03 73 1009.6
20260506000041 50 0 0.0 0.0 0.00 0.61 0.03 73 1009.5
20260505235526 50 0 0.0 0.0 0.00 0.61 0.03 73 1009.6
20260505235026 50 0 0.0 0.0 0.00 0.61 0.03 71 1009.7
20260505234539 50 0 0.0 0.0 0.00 0.61 0.03 72 1009.8
20260505234025 50 0 0.0 0.0 0.00 0.61 0.03 71 1009.8
20260505233529 50 0 0.0 0.0 0.00 0.61 0.03 68 1009.9
20260505233038 50 0 0.0 0.0 0.00 0.61 0.03 66 1010.0
20260505232525 51 0 0.0 0.0 0.00 0.61 0.03 65 1009.9
20260505232025 51 0 0.0 0.0 0.00 0.61 0.03 68 1009.9
20260505231538 51 0 0.0 0.0 0.00 0.61 0.03 67 1009.8
20260505231026 51 0 0.0 0.0 0.00 0.61 0.03 69 1009.7
20260505230525 51 0 0.0 0.0 0.00 0.61 0.03 68 1009.7
20260505230109 51 0 0.0 0.0 0.00 0.61 0.03 66 1009.8
20260505225524 51 0 0.0 0.0 0.00 0.61 0.03 66 1009.6
20260505225030 51 0 0.0 0.0 0.00 0.61 0.03 67 1009.7
20260505224540 51 0 0.0 0.0 0.00 0.61 0.03 75 1009.9
20260505224025 51 0 0.0 0.0 0.00 0.61 0.03 74 1009.6
20260505223529 51 0 0.0 0.0 0.00 0.61 0.03 74 1009.5
20260505223042 51 0 0.0 0.0 0.00 0.61 0.03 73 1009.7
20260505222527 51 0 0.0 0.0 0.00 0.61 0.03 71 1009.7
20260505222026 51 0 0.0 0.0 0.00 0.61 0.03 71 1009.7
20260505221544 51 0 0.0 0.0 0.00 0.61 0.03 70 1009.6
20260505221026 51 0 0.0 0.0 0.00 0.61 0.03 70 1009.6
20260505220526 51 0 0.0 0.0 0.00 0.61 0.03 70 1009.6
20260505220053 51 0 0.0 0.0 0.00 0.61 0.03 70 1009.9
20260505215526 51 0 0.0 0.0 0.00 0.61 0.03 69 1009.7
20260505215026 51 0 0.0 0.0 0.00 0.61 0.03 67 1009.8
20260505214544 51 0 0.0 0.0 0.00 0.61 0.03 69 1009.7
20260505214026 50 0 0.0 0.0 0.00 0.61 0.03 70 1009.8
20260505213527 50 0 0.0 0.0 0.00 0.61 0.03 72 1010.0
20260505213041 50 0 0.0 0.0 0.00 0.61 0.03 71 1010.1
20260505212527 50 0 0.0 0.0 0.00 0.61 0.03 73 1010.1
20260505212029 50 0 0.0 0.0 0.01 0.61 0.03 72 1010.1
20260505211542 50 0 0.0 0.0 0.01 0.61 0.03 74 1010.3
20260505211026 50 0 0.0 0.0 0.01 0.61 0.03 74 1010.4
20260505210525 49 0 0.0 0.0 0.01 0.61 0.03 73 1010.3
20260505210045 49 0 0.0 0.0 0.01 0.61 0.03 74 1010.4
20260505205526 49 0 0.0 0.0 0.01 0.61 0.03 74 1010.6
20260505205026 49 0 0.0 0.0 0.01 0.61 0.03 74 1010.7
20260505204544 49 0 0.0 0.0 0.02 0.61 0.03 73 1010.8
20260505204025 49 0 0.0 0.0 0.02 0.61 0.03 72 1010.9
20260505203526 49 0 0.0 0.0 0.02 0.61 0.03 71 1011.0
20260505203042 49 0 0.0 0.0 0.02 0.61 0.03 73 1011.0
20260505202524 49 0 0.0 0.0 0.02 0.61 0.03 74 1011.0
20260505202026 50 0 0.0 0.0 0.01 0.60 0.02 76 1011.1
20260505201543 49 0 0.0 0.0 0.01 0.60 0.02 75 1011.2
20260505201027 49 0 0.0 0.0 0.01 0.60 0.02 74 1011.4
20260505200526 49 0 0.0 0.0 0.01 0.60 0.02 72 1011.4
20260505200042 50 0 0.0 0.0 0.01 0.60 0.02 72 1011.4
20260505195525 50 0 0.0 0.0 0.01 0.60 0.02 71 1011.3
20260505195026 50 0 0.0 0.0 0.01 0.60 0.02 69 1011.4
20260505194542 50 0 0.0 0.0 0.00 0.58 0.01 69 1011.3
20260505194026 50 0 0.0 0.0 0.00 0.58 0.01 69 1011.4
20260505193526 50 0 0.0 0.0 0.00 0.58 0.01 67 1011.5
20260505193042 50 0 0.0 0.0 0.00 0.58 0.01 70 1011.4
20260505192528 50 0 0.0 0.0 0.00 0.58 0.01 69 1011.4
20260505192028 50 0 0.0 0.0 0.00 0.58 0.01 68 1011.4
20260505191547 51 0 0.0 0.0 0.00 0.58 0.01 67 1011.4
20260505191026 51 0 0.0 0.0 0.00 0.58 0.01 68 1011.5
20260505190526 51 0 0.0 0.0 0.00 0.58 0.01 67 1011.5
20260505190044 51 0 0.0 0.0 0.00 0.58 0.01 66 1011.3
20260505185526 51 0 0.0 0.0 0.00 0.58 0.01 64 1011.2
20260505185026 52 0 0.0 0.0 0.00 0.58 0.01 62 1011.1
20260505184539 52 0 0.0 0.0 0.00 0.58 0.01 60 1011.0
20260505184026 52 0 0.0 1.0 0.00 0.58 0.01 59 1011.1
20260505183525 52 0 0.0 4.0 0.00 0.58 0.01 61 1011.2
20260505183039 53 0 0.0 4.0 0.00 0.58 0.01 58 1011.0
20260505182525 53 0 0.0 0.0 0.00 0.58 0.01 60 1011.0
20260505182025 53 0 0.0 3.0 0.00 0.58 0.01 62 1011.0
20260505181541 53 0 0.0 3.0 0.00 0.58 0.01 68 1010.8
20260505181025 53 0 0.0 3.0 0.00 0.58 0.01 70 1010.9
20260505180523 53 0 0.0 1.0 0.00 0.58 0.01 72 1011.0
20260505180045 53 0 0.0 0.0 0.00 0.58 0.01 75 1011.0
20260505175523 53 0 0.0 0.0 0.00 0.58 0.01 73 1011.1
20260505175023 53 0 0.0 0.0 0.00 0.58 0.01 74 1011.1
20260505174541 53 0 0.0 2.0 0.00 0.58 0.01 75 1011.0
20260505174026 53 0 0.0 2.0 0.00 0.58 0.01 74 1011.0
20260505173526 52 0 0.0 0.0 0.00 0.58 0.01 74 1011.1
20260505173039 52 0 0.0 0.0 0.00 0.58 0.01 74 1011.2
20260505172525 52 0 0.0 0.0 0.00 0.58 0.01 76 1011.1
20260505172026 51 0 0.0 0.0 0.00 0.58 0.01 76 1011.1
20260505171539 50 0 0.0 0.0 0.00 0.58 0.01 76 1011.0
20260505171027 50 0 0.0 0.0 0.00 0.58 0.01 76 1011.0
20260505170525 50 0 0.0 0.0 0.00 0.58 0.01 76 1010.9
20260505170038 49 0 0.0 0.0 0.00 0.58 0.01 75 1010.8
20260505165526 49 0 0.0 0.0 0.00 0.58 0.01 75 1010.8
20260505165027 49 0 0.0 0.0 0.00 0.58 0.01 75 1010.8
20260505164538 49 0 0.0 0.0 0.00 0.58 0.01 75 1011.1
20260505164022 49 0 0.0 0.0 0.00 0.58 0.01 75 1011.2
20260505163522 48 0 0.0 0.0 0.00 0.58 0.01 77 1011.3
20260505163041 48 0 0.0 0.0 0.00 0.58 0.01 77 1011.1
20260505162529 48 0 0.0 0.0 0.00 0.58 0.01 76 1010.8
20260505162026 48 0 0.0 0.0 0.00 0.58 0.01 76 1010.6
20260505161544 49 0 0.0 0.0 0.00 0.58 0.01 78 1010.6
20260505161023 49 0 0.0 0.0 0.00 0.58 0.01 79 1010.5
20260505160527 49 0 0.0 0.0 0.00 0.58 0.01 78 1010.5
20260505153035 48 0 0.0 3.0 0.00 0.58 0.01 80 1010.4
20260505152525 48 0 0.0 7.0 0.00 0.58 0.01 79 1010.4
20260505152025 48 0 0.0 7.0 0.00 0.58 0.01 79 1010.3
20260505151543 48 0 0.0 6.0 0.00 0.58 0.01 77 1010.2
20260505151026 48 0 0.0 3.0 0.00 0.58 0.01 79 1010.3
20260505150529 48 0 0.0 3.0 0.00 0.58 0.01 79 1010.0
20260505140526 46 0 0.0 0.0 0.00 0.58 0.01 83 1010.0
20260505125025 47 0 0.0 8.0 0.00 0.58 0.01 76 1010.0
20260505124550 47 0 0.0 8.0 0.00 0.58 0.01 77 1010.3
20260505124027 47 0 0.0 6.0 0.00 0.58 0.01 75 1010.2
20260505123524 47 287 0.0 6.0 0.00 0.58 0.01 75 1010.3
20260505123040 48 0 0.0 6.0 0.00 0.58 0.01 75 1010.6
20260505122526 48 0 0.0 6.0 0.00 0.58 0.01 75 1010.6
20260505122025 48 0 0.0 3.0 0.00 0.58 0.01 75 1010.4
20260505121542 48 0 0.0 3.0 0.00 0.58 0.01 76 1010.4
20260505121027 48 0 0.0 3.0 0.00 0.58 0.01 75 1010.1
20260505120528 48 0 0.0 1.0 0.00 0.58 0.01 75 1009.9
20260505120039 49 0 0.0 1.0 0.00 0.58 0.01 74 1009.7
20260505115525 49 0 0.0 0.0 0.00 0.58 0.01 73 1009.3
20260505115025 49 0 0.0 1.0 0.00 0.58 0.01 73 1009.1
20260505114538 49 0 0.0 1.0 0.00 0.58 0.01 73 1009.1
20260505114026 49 0 0.0 1.0 0.00 0.58 0.01 73 1009.0
20260505113528 49 0 0.0 1.0 0.00 0.58 0.01 72 1008.9
20260505113044 49 0 0.0 0.0 0.00 0.58 0.01 73 1008.6
20260505112525 49 0 0.0 0.0 0.00 0.58 0.01 73 1008.8
20260505112027 49 0 0.0 0.0 0.00 0.58 0.01 74 1008.6
20260505111540 49 0 0.0 0.0 0.00 0.58 0.01 74 1008.8
20260505111026 49 0 0.0 3.0 0.00 0.58 0.01 73 1008.7
20260505110525 49 0 0.0 3.0 0.00 0.58 0.01 73 1008.6
20260505102025 50 0 0.0 0.0 0.00 0.58 0.01 76 1008.2
20260505101543 50 0 0.0 2.0 0.00 0.58 0.01 75 1008.2
20260505101025 50 0 0.0 2.0 0.00 0.58 0.01 75 1008.2
20260505100525 50 0 0.0 2.0 0.00 0.58 0.01 75 1007.8
20260505100042 50 0 0.0 0.0 0.00 0.58 0.01 76 1007.5
20260505095525 51 0 0.0 0.0 0.00 0.58 0.01 78 1007.5
20260505095024 51 0 0.0 0.0 0.00 0.58 0.01 77 1007.4
20260505094541 51 0 0.0 0.0 0.00 0.58 0.01 74 1007.1
20260505094025 51 0 0.0 0.0 0.00 0.58 0.01 73 1007.5
20260505093526 51 0 0.0 0.0 0.00 0.58 0.01 71 1007.6
20260505093040 51 0 0.0 0.0 0.00 0.58 0.01 71 1007.7
20260505092528 51 0 0.0 0.0 0.00 0.58 0.01 73 1007.8
20260505092025 52 0 0.0 0.0 0.00 0.58 0.01 76 1008.1
20260505091539 52 0 0.0 0.0 0.00 0.58 0.01 75 1007.8
20260505091025 52 0 0.0 0.0 0.00 0.58 0.01 76 1007.9
20260505090525 52 0 0.0 0.0 0.00 0.58 0.01 77 1008.3
20260505090046 52 0 0.0 0.0 0.00 0.58 0.01 77 1008.0
20260505085525 52 0 0.0 0.0 0.00 0.58 0.01 77 1007.9
20260505085025 52 0 0.0 0.0 0.00 0.58 0.01 76 1007.8
20260505084551 52 0 0.0 0.0 0.00 0.58 0.01 75 1007.7
20260505084025 52 0 0.0 1.0 0.00 0.58 0.01 76 1007.6
20260505083526 52 0 0.0 1.0 0.00 0.58 0.01 78 1007.7
20260505083054 52 0 0.0 1.0 0.01 0.58 0.01 79 1007.8
20260505082525 52 0 0.0 0.0 0.01 0.58 0.01 81 1007.4
20260505082025 52 0 0.0 0.0 0.01 0.58 0.01 79 1007.1
20260505081544 52 0 0.0 0.0 0.01 0.58 0.01 80 1006.9
20260505081028 53 0 0.0 0.0 0.01 0.58 0.01 81 1006.8
20260505080526 53 0 0.0 0.0 0.01 0.58 0.01 81 1006.4
20260505080046 53 0 0.0 0.0 0.01 0.58 0.01 80 1006.0
20260505075524 53 0 0.0 0.0 0.01 0.58 0.01 80 1006.1
20260505075025 53 0 0.0 0.0 0.01 0.58 0.01 79 1005.9
20260505074535 53 0 0.0 0.0 0.01 0.58 0.01 78 1005.7
20260505074025 53 0 0.0 0.0 0.01 0.58 0.01 77 1005.6
20260505073525 53 0 0.0 0.0 0.01 0.58 0.01 74 1005.6
20260505073036 53 0 0.0 0.0 0.00 0.58 0.00 75 1005.7
20260505072525 53 0 0.0 0.0 0.00 0.58 0.00 76 1005.7
20260505072025 53 0 0.0 0.0 0.00 0.58 0.00 78 1005.8
20260505071547 53 0 0.0 0.0 0.00 0.58 0.00 80 1005.7
20260505071027 53 0 0.0 0.0 0.00 0.58 0.00 83 1005.7
20260505070525 53 0 0.0 0.0 0.00 0.58 0.00 83 1005.4
20260505070040 53 0 0.0 0.0 0.00 0.58 0.00 86 1005.4
20260505065525 53 0 0.0 0.0 0.00 0.58 0.00 88 1005.5
20260505065025 54 0 0.0 0.0 0.00 0.58 0.00 89 1005.5
20260505064540 54 0 0.0 0.0 0.00 0.58 0.00 90 1005.3
20260505064025 54 0 0.0 0.0 0.00 0.58 0.00 90 1005.2
20260505063525 55 0 0.0 0.0 0.00 0.58 0.00 90 1005.1
20260505063040 55 0 0.0 0.0 0.00 0.58 0.00 90 1004.8
20260505062522 55 0 0.0 0.0 0.00 0.58 0.00 90 1004.6
20260505062026 55 0 0.0 0.0 0.00 0.58 0.00 90 1004.5
20260505061543 55 0 0.0 0.0 0.00 0.58 0.00 90 1004.6
20260505061027 56 0 0.0 0.0 0.00 0.58 0.00 90 1004.7
20260505060525 56 0 0.0 0.0 0.00 0.58 0.00 90 1004.5
20260505060045 56 0 0.0 0.0 0.00 0.58 0.00 90 1004.3
20260505055525 56 0 0.0 0.0 0.00 0.58 0.00 90 1004.3
20260505055026 56 0 0.0 0.0 0.00 0.58 0.00 90 1004.2
20260505054546 56 0 0.0 0.0 0.00 0.58 0.00 90 1004.3
20260505054026 56 0 0.0 0.0 0.00 0.58 0.00 90 1004.2
20260505053524 57 0 0.0 0.0 0.00 0.58 0.00 90 1004.3
20260505053039 57 0 0.0 0.0 0.00 0.58 0.00 90 1004.4
20260505052521 57 0 0.0 0.0 0.00 0.58 0.00 90 1004.2
20260505052025 57 0 0.0 0.0 0.00 0.58 0.00 90 1004.1
20260505051539 57 0 0.0 0.0 0.00 0.58 0.00 90 1003.9
20260505051026 57 0 0.0 0.0 0.00 0.58 0.00 90 1003.7
20260505050525 57 0 0.0 0.0 0.00 0.58 0.00 90 1003.5
20260505041539 57 0 0.0 0.0 0.05 0.58 0.58 91 1002.9
20260505041026 57 0 0.0 0.0 0.08 0.58 0.58 92 1002.7
20260505040525 57 0 0.0 0.0 0.09 0.58 0.58 91 1002.5
20260505040040 57 0 0.0 0.0 0.13 0.58 0.58 91 1002.6
20260505035529 56 0 0.0 0.0 0.17 0.58 0.58 91 1002.4
20260505035025 56 0 0.0 0.0 0.18 0.58 0.58 91 1002.7
20260505034542 56 0 0.0 0.0 0.18 0.58 0.58 91 1002.7
20260505034025 56 0 0.0 0.0 0.24 0.58 0.58 91 1002.6
20260505033525 56 0 0.0 0.0 0.30 0.58 0.58 91 1002.5
20260505033043 56 0 0.0 0.0 0.37 0.58 0.58 91 1002.7
20260505032524 56 0 0.0 0.0 0.48 0.58 0.58 90 1003.9
20260505032025 56 0 0.0 0.0 0.54 0.55 0.55 90 1004.3
20260505031552 56 0 0.0 0.0 0.52 0.52 0.52 90 1004.3
20260505031026 56 0 0.0 0.0 0.50 0.50 0.50 90 1004.3
20260505030525 56 0 0.0 0.0 0.49 0.49 0.49 89 1004.0
20260505030044 56 0 0.0 0.0 0.45 0.45 0.45 88 1004.5
20260505025522 57 0 0.0 0.0 0.41 0.41 0.41 88 1004.4
20260505025024 57 0 0.0 0.0 0.40 0.40 0.40 87 1004.2
20260505024548 57 0 0.0 0.0 0.39 0.39 0.39 86 1004.5
20260505024027 57 0 0.0 1.0 0.33 0.33 0.33 85 1004.6
20260505023525 58 0 0.0 1.0 0.28 0.28 0.28 83 1004.1
20260505023041 59 0 0.0 3.0 0.19 0.19 0.19 79 1004.6
20260505022525 61 0 0.0 6.0 0.09 0.09 0.09 73 1004.5
20260505022025 64 0 0.0 9.0 0.00 0.00 0.00 65 1004.4
20260505021540 67 287 1.0 9.0 0.00 0.00 0.00 59 1004.1
20260505021027 69 287 3.0 11.0 0.00 0.00 0.00 54 1003.9
20260505020525 70 287 4.0 11.0 0.00 0.00 0.00 60 1001.6
20260505020041 70 287 3.0 10.0 0.00 0.00 0.00 60 1001.4
20260505015525 70 0 5.0 10.0 0.00 0.00 0.00 61 1001.3
20260505015025 70 287 4.0 8.0 0.00 0.00 0.00 61 1001.4
20260505014559 70 287 2.0 10.0 0.00 0.00 0.00 61 1001.5
20260505014025 70 287 2.0 10.0 0.00 0.00 0.00 61 1001.5
20260505013521 70 0 3.0 9.0 0.00 0.00 0.00 61 1001.5
20260505013036 70 287 3.0 8.0 0.00 0.00 0.00 61 1001.2
20260505012526 70 287 4.0 9.0 0.00 0.00 0.00 61 1001.2
20260505012026 70 287 2.0 9.0 0.00 0.00 0.00 61 1001.1
20260505011550 70 287 1.0 9.0 0.00 0.00 0.00 61 1001.0
20260505011025 70 0 3.0 9.0 0.00 0.00 0.00 60 1000.8
20260505010525 70 287 4.0 10.0 0.00 0.00 0.00 60 1000.8
20260505010040 70 287 3.0 10.0 0.00 0.00 0.00 60 1000.8
20260505005525 71 287 5.0 10.0 0.00 0.00 0.00 60 1000.8
20260505005027 71 287 3.0 10.0 0.00 0.00 0.00 60 1000.7
20260505004540 71 287 4.0 10.0 0.00 0.00 0.00 60 1000.6
20260505004026 71 287 1.0 9.0 0.00 0.00 0.00 59 1000.5
20260505003530 71 287 2.0 9.0 0.00 0.00 0.00 58 1000.6
20260505003039 71 287 4.0 12.0 0.00 0.00 0.00 58 1000.5